Effective Sunday, March 17, 2024, the National Weather Service National Data Buoy Center will discontinue its Dial-A-Buoy Interactive Voice Response system. For more information, see Service Change Notice 24-06 (PDF).

Station KBMG1 - 8679598 - Kings Bay MSF Pier, GA Image indicating link to RSS feed of recent meteorological observations for station KBMG1


Conditions at KBMG1 as of
(4:18 pm EST)
2118 GMT on 02/26/2024:
     

Click on the graph icon in the table below to see a time series plot of the last five days of that observation.

5-day plot - Atmospheric Pressure Atmospheric Pressure (PRES):30.14 in
5-day plot - Air Temperature Air Temperature (ATMP): 63.9 °F
NOS Water Level Observation Network Water Level
Previous observations
TIME
(EST)
5-day plot - Wind Direction
WDIR
 
5-day plot - Wind Speed
WSPD
kts
5-day plot - Wind Gust
GST
kts
5-day plot - Wave Height
WVHT
ft
5-day plot - Dominant Wave Period
DPD
sec
5-day plot - Average Wave Period
APD
sec
5-day plot - Mean Wave Direction
MWD
 
5-day plot - Atmospheric Pressure
PRES
in
5-day plot - Pressure Tendency
PTDY
in
5-day plot - Air Temperature
ATMP
°F
5-day plot - Water Temperature
WTMP
°F
5-day plot - Dew Point
DEWP
°F
5-day plot - Salinity
SAL
psu
5-day plot - Visibility
VIS
nmi
5-day plot - Tide (above MLLW)
TIDE
ft
2024-02-26 04:12 pm-------30.14- 63.7-----
2024-02-26 04:06 pm-------30.14- 64.0-----
2024-02-26 04:00 pm-------30.14-0.08 63.5-----
2024-02-26 03:54 pm-------30.14- 63.5-----
2024-02-26 03:48 pm-------30.14-------
2024-02-26 03:42 pm-------30.14-------
2024-02-26 03:36 pm-------30.15-------
2024-02-26 03:30 pm-------30.15- 64.4-----
2024-02-26 03:24 pm-------30.15- 64.6-----
2024-02-26 03:18 pm-------30.15- 64.6-----
2024-02-26 03:12 pm-------30.16- 64.4-----
2024-02-26 03:06 pm-------30.16- 64.0-----
2024-02-26 03:00 pm-------30.16-0.09 63.7-----
2024-02-26 02:54 pm-------30.16- 63.7-----
2024-02-26 02:48 pm-------30.16- 63.5-----
2024-02-26 02:42 pm-------30.16- 63.7-----
2024-02-26 02:36 pm-------30.17- 63.5-----
2024-02-26 02:30 pm-------30.17- 63.5-----
2024-02-26 02:24 pm-------30.17- 63.3-----
2024-02-26 02:18 pm-------30.18- 63.1-----
2024-02-26 02:12 pm-------30.18- 63.1-----
2024-02-26 02:06 pm-------30.18- 63.1-----
2024-02-26 02:00 pm-------30.19-0.07 63.3-----
2024-02-26 01:54 pm-------30.19- 63.3-----
2024-02-26 01:48 pm-------30.19- 63.5-----
2024-02-26 01:42 pm-------30.19- 63.1-----
2024-02-26 01:36 pm-------30.19- 63.3-----
2024-02-26 01:30 pm-------30.20- 63.3-----
2024-02-26 01:24 pm-------30.20- 63.1-----
2024-02-26 01:18 pm-------30.21- 63.1-----
2024-02-26 01:12 pm-------30.21- 63.3-----
2024-02-26 01:06 pm-------30.22- 63.3-----
2024-02-26 01:00 pm-------30.22-0.03 63.1-----
2024-02-26 12:54 pm-------30.22- 63.3-----
2024-02-26 12:48 pm-------30.23- 63.3-----
2024-02-26 12:42 pm-------30.23- 62.8-----
2024-02-26 12:36 pm-------30.23- 62.6-----
2024-02-26 12:30 pm-------30.23- 62.6-----
2024-02-26 12:24 pm-------30.24- 62.6-----
2024-02-26 12:18 pm-------30.24- 62.6-----
2024-02-26 12:12 pm-------30.24- 62.4-----
2024-02-26 12:06 pm-------30.24- 62.2-----
2024-02-26 12:00 pm-------30.24+0.00 62.4-----
2024-02-26 11:54 am-------30.24- 63.0-----
2024-02-26 11:48 am-------30.25- 63.0-----
2024-02-26 11:42 am-------30.25- 63.1-----
2024-02-26 11:36 am-------30.25- 63.0-----
2024-02-26 11:30 am-------30.25- 62.6-----
2024-02-26 11:24 am-------30.25- 61.9-----
2024-02-26 11:18 am-------30.26- 61.5-----
2024-02-26 11:12 am-------30.26- 61.5-----
2024-02-26 11:06 am-------30.25- 61.5-----
2024-02-26 11:00 am-------30.26+0.03 61.0-----
2024-02-26 10:54 am-------30.26- 60.6-----
2024-02-26 10:48 am-------30.26- 60.3-----
2024-02-26 10:42 am-------30.26- 60.1-----
2024-02-26 10:36 am-------30.26- 59.7-----
2024-02-26 10:30 am-------30.26- 59.5-----
2024-02-26 10:24 am-------30.26- 59.2-----
2024-02-26 10:18 am-------30.26- 59.2-----
2024-02-26 10:12 am-------30.25- 59.0-----
2024-02-26 10:06 am-------30.25- 58.6-----
2024-02-26 10:00 am-------30.25+0.04 58.1-----
2024-02-26 09:54 am-------30.25- 57.9-----
2024-02-26 09:48 am-------30.25- 57.7-----
2024-02-26 09:42 am-------30.25- 57.6-----
2024-02-26 09:36 am-------30.25- 57.2-----
2024-02-26 09:30 am-------30.25- 56.7-----
2024-02-26 09:24 am-------30.25- 56.1-----
2024-02-26 09:18 am-------30.25- 55.4-----
2024-02-26 09:12 am-------30.25- 55.2-----
2024-02-26 09:06 am-------30.25- 55.0-----
2024-02-26 09:00 am-------30.25+0.04 55.0-----
2024-02-26 08:54 am-------30.25- 55.6-----
2024-02-26 08:48 am-------30.24- 55.0-----
2024-02-26 08:42 am-------30.24- 53.8-----
2024-02-26 08:36 am-------30.24- 53.2-----
2024-02-26 08:30 am-------30.24- 52.9-----
2024-02-26 08:24 am-------30.24- 52.0-----
2024-02-26 08:18 am-------30.24- 51.3-----
2024-02-26 08:12 am-------30.24- 50.5-----
2024-02-26 08:06 am-------30.24- 50.0-----
2024-02-26 08:00 am-------30.23+0.02 49.5-----
2024-02-26 07:54 am-------30.23- 49.1-----
2024-02-26 07:48 am-------30.23- 48.7-----
2024-02-26 07:42 am-------30.23- 48.6-----
2024-02-26 07:36 am-------30.23- 48.6-----
2024-02-26 07:30 am-------30.23- 48.2-----
2024-02-26 07:24 am-------30.22- 48.2-----
2024-02-26 07:18 am-------30.22- 48.0-----
2024-02-26 07:12 am-------30.22- 47.8-----
2024-02-26 07:06 am-------30.22- 47.5-----
2024-02-26 07:00 am-------30.22+0.01 47.7-----
2024-02-26 06:54 am-------30.22- 47.3-----
2024-02-26 06:48 am-------30.22- 46.9-----
2024-02-26 06:42 am-------30.22- 46.9-----
2024-02-26 06:36 am-------30.22- 46.8-----
2024-02-26 06:30 am-------30.21- 47.1-----
2024-02-26 06:24 am-------30.21- 47.5-----
2024-02-26 06:18 am-------30.21- 48.0-----
2024-02-26 06:12 am-------30.21- 48.2-----
2024-02-26 06:06 am-------30.21- 48.6-----
2024-02-26 06:00 am-------30.21+0.00 49.1-----
2024-02-26 05:54 am-------30.21- 48.6-----
2024-02-26 05:48 am-------30.21- 48.4-----
2024-02-26 05:42 am-------30.21- 48.2-----
2024-02-26 05:36 am-------30.21- 48.6-----
2024-02-26 05:30 am-------30.21- 48.4-----
2024-02-26 05:24 am-------30.21- 48.0-----
2024-02-26 05:18 am-------30.21- 47.7-----
2024-02-26 05:12 am-------30.21- 47.5-----
2024-02-26 05:06 am-------30.21- 47.5-----
2024-02-26 05:00 am-------30.21-0.01 47.5-----
2024-02-26 04:54 am-------30.21- 47.5-----
2024-02-26 04:48 am-------30.21- 47.3-----
2024-02-26 04:42 am-------30.21- 47.3-----
2024-02-26 04:36 am-------30.21- 47.1-----
2024-02-26 04:30 am-------30.21- 47.1-----
2024-02-26 04:24 am-------30.21- 47.5-----
2024-02-26 04:18 am-------30.21- 48.6-----
2024-02-26 04:12 am-------30.21- 48.9-----
2024-02-26 04:06 am-------30.21- 49.1-----
2024-02-26 04:00 am-------30.21+0.00 49.5-----
2024-02-26 03:54 am-------30.21- 49.5-----
2024-02-26 03:48 am-------30.21- 48.9-----
2024-02-26 03:42 am-------30.22- 48.6-----
2024-02-26 03:36 am-------30.22- 48.4-----
2024-02-26 03:30 am-------30.22- 48.2-----
2024-02-26 03:24 am-------30.22- 48.0-----
2024-02-26 03:18 am-------30.21- 48.4-----
2024-02-26 03:12 am-------30.21- 48.6-----
2024-02-26 03:06 am-------30.21- 48.9-----
2024-02-26 03:00 am-------30.21+0.00 48.7-----
2024-02-26 02:54 am-------30.21- 49.1-----
2024-02-26 02:48 am-------30.21- 49.5-----
2024-02-26 02:42 am-------30.21- 49.6-----
2024-02-26 02:36 am-------30.21- 49.6-----
2024-02-26 02:30 am-------30.21- 49.8-----
2024-02-26 02:24 am-------30.21- 50.0-----
2024-02-26 02:18 am-------30.21- 50.2-----
2024-02-26 02:12 am-------30.21- 50.0-----
2024-02-26 02:06 am-------30.22- 49.8-----
2024-02-26 02:00 am-------30.22+0.01 49.6-----
2024-02-26 01:54 am-------30.21- 49.6-----
2024-02-26 01:48 am-------30.22- 50.5-----
2024-02-26 01:42 am-------30.22- 51.3-----
2024-02-26 01:36 am-------30.21- 51.4-----
2024-02-26 01:30 am-------30.21- 51.1-----
2024-02-26 01:24 am-------30.21- 51.8-----
2024-02-26 01:18 am-------30.21- 53.2-----
2024-02-26 01:12 am-------30.21- 55.2-----
2024-02-26 01:06 am-------30.21- 55.2-----
2024-02-26 01:00 am-------30.21+0.00 55.2-----
2024-02-26 12:54 am-------30.21- 55.4-----
2024-02-26 12:48 am-------30.21- 55.4-----
2024-02-26 12:42 am-------30.21- 55.6-----
2024-02-26 12:36 am-------30.21- 55.4-----
2024-02-26 12:30 am-------30.21- 55.6-----
2024-02-26 12:24 am-------30.21- 55.6-----
2024-02-26 12:18 am-------30.21- 55.4-----
2024-02-26 12:12 am-------30.21- 55.6-----
2024-02-26 12:06 am-------30.21- 55.6-----
2024-02-26 12:00 am-------30.21+0.00 55.8-----
2024-02-25 11:54 pm-------30.21- 55.8-----
2024-02-25 11:48 pm-------30.21- 55.8-----
2024-02-25 11:42 pm-------30.21- 55.8-----
2024-02-25 11:36 pm-------30.21- 55.8-----
2024-02-25 11:30 pm-------30.21- 55.8-----
2024-02-25 11:24 pm-------30.21- 55.8-----
2024-02-25 11:18 pm-------30.21- 55.8-----
2024-02-25 11:12 pm-------30.21- 55.8-----
2024-02-25 11:06 pm-------30.21- 55.8-----
2024-02-25 11:00 pm-------30.20+0.01 55.8-----
2024-02-25 10:54 pm-------30.20- 55.8-----
2024-02-25 10:48 pm-------30.20- 55.6-----
2024-02-25 10:42 pm-------30.20- 55.6-----
2024-02-25 10:36 pm-------30.21- 55.6-----
2024-02-25 10:30 pm-------30.21- 55.6-----
2024-02-25 10:24 pm-------30.21- 55.4-----
2024-02-25 10:18 pm-------30.21- 55.4-----
2024-02-25 10:12 pm-------30.21- 55.4-----
2024-02-25 10:06 pm-------30.21- 55.4-----
2024-02-25 10:00 pm-------30.21+0.03 55.4-----
2024-02-25 09:54 pm-------30.21- 55.6-----
2024-02-25 09:48 pm-------30.21- 55.4-----
2024-02-25 09:42 pm-------30.21- 55.2-----
2024-02-25 09:36 pm-------30.21- 55.0-----
2024-02-25 09:30 pm-------30.20- 55.0-----
2024-02-25 09:24 pm-------30.20- 55.2-----
2024-02-25 09:18 pm-------30.20- 55.0-----
2024-02-25 09:12 pm-------30.20- 54.9-----
2024-02-25 09:06 pm-------30.21- 54.9-----
2024-02-25 09:00 pm-------30.21+0.03 54.7-----
2024-02-25 08:54 pm-------30.21- 54.7-----
2024-02-25 08:48 pm-------30.21- 54.5-----
2024-02-25 08:42 pm-------30.21- 54.7-----
2024-02-25 08:36 pm-------30.20- 54.5-----
2024-02-25 08:30 pm-------30.20- 54.5-----
2024-02-25 08:24 pm-------30.20- 54.5-----
2024-02-25 08:18 pm-------30.20- 54.3-----
2024-02-25 08:12 pm-------30.20- 54.1-----
2024-02-25 08:06 pm-------30.19- 54.0-----
2024-02-25 08:00 pm-------30.19+0.03------
2024-02-25 07:54 pm-------30.19-------
2024-02-25 07:48 pm-------30.19- 54.3-----
2024-02-25 07:42 pm-------30.19- 54.3-----
2024-02-25 07:36 pm-------30.19- 54.3-----
2024-02-25 07:30 pm-------30.19- 54.3-----
2024-02-25 07:24 pm-------30.19- 54.3-----
2024-02-25 07:18 pm-------30.19-------
2024-02-25 07:12 pm-------30.19-------
2024-02-25 07:06 pm-------30.19-------
2024-02-25 07:00 pm-------30.18+0.01------
2024-02-25 06:54 pm-------30.18-------
2024-02-25 06:48 pm-------30.18- 54.3-----
2024-02-25 06:42 pm-------30.18- 54.3-----
2024-02-25 06:36 pm-------30.18- 54.5-----
2024-02-25 06:30 pm-------30.18- 54.7-----
2024-02-25 06:24 pm-------30.18- 54.7-----
2024-02-25 06:00 pm-------30.18+0.00 55.8-----
2024-02-25 05:54 pm-------30.18- 55.9-----
2024-02-25 05:48 pm-------30.18- 56.3-----
2024-02-25 05:42 pm-------30.18- 56.5-----
2024-02-25 05:36 pm-------30.18- 56.5-----
2024-02-25 05:30 pm-------30.17- 56.8-----
2024-02-25 05:24 pm-------30.17- 57.0-----
2024-02-25 05:18 pm-------30.17- 56.8-----
2024-02-25 05:12 pm-------30.17- 57.0-----
2024-02-25 05:06 pm-------30.17- 56.8-----
2024-02-25 05:00 pm-------30.16-0.02 57.4-----
2024-02-25 04:54 pm-------30.17- 57.4-----